UAE245 LGMK-LGAV

Flight info

Callsign UAE245
Flight time N/A
Altitude 12000
Route VARI1D VARIX VARI1Q
Aircraft A333/H-VGD/A

Departure

Time 2026-04-24 09:37
Airport Mykonos Island National Airport (LGMK)

Arrival

Time N/A
Airport Athens Eleftherios Venizelos International Airport (LGAV)
Time Latitude Longitude Altitude Speed Heading
2026-04-24 09:33 37.43506 25.34658 414 ft 0 kts 251°
2026-04-24 09:34 37.43502 25.34653 414 ft 3 kts 225°
2026-04-24 09:34 37.43460 25.34708 416 ft 17 kts 119°
2026-04-24 09:34 37.43382 25.34857 421 ft 20 kts 127°
2026-04-24 09:35 37.43259 25.34943 420 ft 20 kts 161°
2026-04-24 09:35 37.43118 25.34989 417 ft 21 kts 163°
2026-04-24 09:35 37.42976 25.35050 414 ft 22 kts 160°
2026-04-24 09:35 37.42818 25.35118 405 ft 25 kts 166°
2026-04-24 09:36 37.42738 25.35175 401 ft 11 kts 12°
2026-04-24 09:36 37.42784 25.35150 403 ft 0 kts 339°
2026-04-24 09:36 37.42788 25.35148 403 ft 4 kts 339°
2026-04-24 09:36 37.43032 25.35038 415 ft 75 kts 340°
2026-04-24 09:37 37.43769 25.34712 412 ft 148 kts 342°
2026-04-24 09:37 37.44859 25.34107 734 ft 181 kts 328°
2026-04-24 09:37 37.46003 25.33295 1420 ft 206 kts 329°
2026-04-24 09:37 37.47303 25.32305 2261 ft 233 kts 331°
2026-04-24 09:38 37.48830 25.31420 3066 ft 261 kts 345°
2026-04-24 09:38 37.50671 25.30821 3955 ft 285 kts 351°
2026-04-24 09:38 37.52679 25.30409 5062 ft 305 kts 352°
2026-04-24 09:38 37.54811 25.30018 6272 ft 318 kts 352°
2026-04-24 09:39 37.56900 25.29002 7251 ft 339 kts 328°
2026-04-24 09:39 37.58624 25.26883 8336 ft 358 kts 306°
2026-04-24 09:39 37.59688 25.24046 9481 ft 372 kts 285°
2026-04-24 09:39 37.59889 25.20785 10672 ft 377 kts 266°
2026-04-24 09:40 37.59114 25.17774 11765 ft 356 kts 240°
2026-04-24 09:40 37.57517 25.15606 12750 ft 337 kts 215°
2026-04-24 09:40 37.55386 25.14522 13384 ft 330 kts 193°
2026-04-24 09:40 37.53111 25.13983 13106 ft 341 kts 189°
2026-04-24 09:41 37.50695 25.13868 12137 ft 371 kts 168°
2026-04-24 09:41 37.48377 25.15423 11249 ft 385 kts 135°
2026-04-24 09:41 37.46890 25.18157 10760 ft 382 kts 105°
2026-04-24 09:41 37.46542 25.21286 11260 ft 342 kts 92°
2026-04-24 09:42 37.46233 25.24170 11713 ft 324 kts 98°
2026-04-24 09:42 37.45867 25.26850 11967 ft 304 kts 99°
2026-04-24 09:42 37.45169 25.29223 12206 ft 281 kts 124°
2026-04-24 09:42 37.43761 25.30814 12322 ft 267 kts 156°
2026-04-24 09:43 37.41922 25.31253 12447 ft 283 kts 187°
2026-04-24 09:43 37.40088 25.30303 12756 ft 296 kts 219°
2026-04-24 09:43 37.38734 25.28182 12397 ft 331 kts 248°
2026-04-24 09:43 37.38094 25.25343 11916 ft 350 kts 257°
2026-04-24 09:44 37.37803 25.22256 11783 ft 359 kts 271°
2026-04-24 09:44 37.37864 25.19075 11609 ft 369 kts 272°
2026-04-24 09:44 37.37897 25.15863 11558 ft 368 kts 271°
2026-04-24 09:44 37.37810 25.12675 11723 ft 364 kts 266°
2026-04-24 09:45 37.37564 25.09520 11907 ft 365 kts 264°
2026-04-24 09:45 37.37221 25.06395 12088 ft 365 kts 261°
2026-04-24 09:45 37.36794 25.03253 12270 ft 364 kts 261°
2026-04-24 09:45 37.36579 25.00070 12438 ft 365 kts 274°
2026-04-24 09:46 37.37141 24.96972 12020 ft 365 kts 295°
2026-04-24 09:46 37.38353 24.94221 11662 ft 360 kts 298°
2026-04-24 09:46 37.39494 24.91433 11547 ft 357 kts 295°
2026-04-24 09:46 37.40360 24.88497 11509 ft 356 kts 284°
2026-04-24 09:47 37.40948 24.85469 11426 ft 356 kts 284°
2026-04-24 09:47 37.41568 24.82478 12058 ft 355 kts 287°
2026-04-24 09:47 37.42245 24.79454 12336 ft 362 kts 287°
2026-04-24 09:47 37.42939 24.76405 12530 ft 364 kts 287°
2026-04-24 09:48 37.43646 24.73346 12236 ft 371 kts 286°
2026-04-24 09:48 37.44369 24.70292 12045 ft 361 kts 288°
2026-04-24 09:48 37.45136 24.67295 11981 ft 357 kts 289°
2026-04-24 09:48 37.45923 24.64325 11868 ft 355 kts 290°
2026-04-24 09:49 37.46682 24.61404 11920 ft 349 kts 288°
2026-04-24 09:49 37.47419 24.58452 11843 ft 356 kts 288°
2026-04-24 09:49 37.48134 24.55477 11772 ft 362 kts 289°
2026-04-24 09:49 37.48875 24.52399 11854 ft 366 kts 286°
2026-04-24 09:50 37.49590 24.49334 12005 ft 368 kts 287°
2026-04-24 09:50 37.50338 24.46258 12174 ft 369 kts 288°
2026-04-24 09:50 37.51086 24.43238 12315 ft 359 kts 288°
2026-04-24 09:50 37.51827 24.40262 12200 ft 356 kts 289°
2026-04-24 09:51 37.52597 24.37329 11919 ft 346 kts 294°
2026-04-24 09:51 37.53635 24.34645 10989 ft 348 kts 297°
2026-04-24 09:51 37.54720 24.31877 9781 ft 356 kts 296°
2026-04-24 09:51 37.55853 24.29142 8569 ft 361 kts 303°
2026-04-24 09:52 37.57508 24.26783 7401 ft 359 kts 322°
2026-04-24 09:52 37.59587 24.25197 6544 ft 349 kts 335°
2026-04-24 09:52 37.61629 24.23582 5720 ft 343 kts 324°
2026-04-24 09:52 37.63466 24.21821 5193 ft 330 kts 324°
2026-04-24 09:53 37.65243 24.20072 4650 ft 319 kts 324°
2026-04-24 09:53 37.66955 24.18327 4107 ft 311 kts 323°
2026-04-24 09:53 37.68379 24.16395 3950 ft 294 kts 302°
2026-04-24 09:53 37.68961 24.13996 3902 ft 281 kts 275°
2026-04-24 09:54 37.68606 24.11601 3825 ft 283 kts 246°
2026-04-24 09:54 37.67398 24.09689 3785 ft 279 kts 215°
2026-04-24 09:54 37.65787 24.08265 3743 ft 291 kts 213°
2026-04-24 09:54 37.64037 24.06860 3737 ft 303 kts 214°
2026-04-24 09:55 37.62267 24.05403 3848 ft 310 kts 210°
2026-04-24 09:55 37.60436 24.03909 3976 ft 314 kts 212°
2026-04-24 09:55 37.58595 24.02452 3950 ft 313 kts 214°
2026-04-24 09:55 37.57116 24.00534 4070 ft 304 kts 243°
2026-04-24 09:56 37.56549 23.98057 4195 ft 293 kts 272°
2026-04-24 09:56 37.56950 23.95597 4332 ft 283 kts 299°
2026-04-24 09:56 37.57972 23.93436 4020 ft 292 kts 306°
2026-04-24 09:56 37.59123 23.91213 3305 ft 317 kts 306°
2026-04-24 09:57 37.60356 23.88841 2869 ft 326 kts 307°
2026-04-24 09:57 37.61633 23.86491 2740 ft 325 kts 305°
2026-04-24 09:57 37.62881 23.84160 2778 ft 315 kts 306°
2026-04-24 09:57 37.64097 23.81914 2793 ft 305 kts 305°
2026-04-24 09:58 37.65261 23.79710 2831 ft 299 kts 304°
2026-04-24 09:58 37.66381 23.77500 2887 ft 298 kts 306°
2026-04-24 09:58 37.67773 23.75681 2989 ft 288 kts 333°
2026-04-24 09:58 37.69653 23.75017 3108 ft 278 kts
2026-04-24 09:59 37.71518 23.75531 3244 ft 274 kts 14°
2026-04-24 09:59 37.73447 23.75845 3112 ft 280 kts
2026-04-24 09:59 37.75396 23.75984 3065 ft 283 kts
2026-04-24 09:59 37.77382 23.76112 3074 ft 283 kts
2026-04-24 10:00 37.79371 23.76245 3005 ft 290 kts
2026-04-24 10:00 37.81412 23.76442 2831 ft 299 kts
2026-04-24 10:00 37.83379 23.77268 2793 ft 300 kts 31°
2026-04-24 10:00 37.84821 23.79152 2811 ft 302 kts 55°
2026-04-24 10:01 37.86103 23.81291 2833 ft 302 kts 57°
2026-04-24 10:01 37.86981 23.83725 2581 ft 314 kts 68°
2026-04-24 10:01 37.87672 23.86306 2268 ft 308 kts 69°
2026-04-24 10:01 37.88664 23.88681 1712 ft 306 kts 44°
2026-04-24 10:02 37.90347 23.90269 1075 ft 294 kts 33°
2026-04-24 10:02 37.91903 23.91699 1159 ft 260 kts 37°
2026-04-24 10:02 37.93266 23.92999 1107 ft 237 kts 36°
2026-04-24 10:02 37.94528 23.94202 994 ft 219 kts 35°
2026-04-24 10:03 37.95663 23.95421 902 ft 204 kts 45°
2026-04-24 10:03 37.96593 23.96707 778 ft 194 kts 52°
2026-04-24 10:03 37.97509 23.98191 1049 ft 239 kts 52°
2026-04-24 10:03 37.98530 24.00018 1879 ft 263 kts 53°
2026-04-24 10:04 37.99479 24.01900 3248 ft 257 kts 53°
2026-04-24 10:04 38.00425 24.03743 4459 ft 257 kts 56°
2026-04-24 10:04 38.01362 24.05714 4779 ft 262 kts 60°
2026-04-24 10:04 38.02100 24.07816 5152 ft 264 kts 66°
2026-04-24 10:05 38.02689 24.10033 5527 ft 266 kts 69°